Location: Buckeye Ditch
(40.9104°N, 122.9517°W)
Time: 17:59:47
(UTC+00:00)

Vanguard 1 - Visible Passes

Search period start: 19 May 2025 00:00
Search period end: 29 May 2025 00:00
Orbit: 650 x 3821 km, 34.2° (Epoch: 18 May)

Date Brightness Start Highest point End Pass type
(mag) Time Alt. Az. Time Alt. Az. Time Alt. Az.
19 May 11.2 04:02:53 10° WSW 04:15:54 59° S 04:22:55 10° ESE visible
19 May 10.9 06:28:18 10° W 06:35:34 34° SW 06:35:34 34° SW visible
20 May 11.1 04:22:41 10° W 04:35:16 57° S 04:41:18 15° ESE visible
20 May 11.4 06:48:13 10° W 06:53:52 26° SW 06:53:52 26° SW visible
21 May 11.1 04:42:32 10° W 04:54:34 54° SSW 04:59:34 20° SE visible
21 May 11.9 07:08:23 10° W 07:12:08 18° WSW 07:12:08 18° WSW visible
22 May 11.1 05:02:23 10° W 05:13:47 48° SSW 05:17:50 25° SE visible
22 May 12.3 07:29:10 10° WSW 07:30:25 12° WSW 07:30:25 12° WSW visible
23 May 11.1 05:22:18 10° W 05:32:53 41° SSW 05:36:06 28° SSE visible
24 May 11.3 05:42:17 10° W 05:51:53 33° SSW 05:54:21 27° S visible
25 May 11.6 06:02:26 10° W 06:10:44 26° SW 06:12:37 23° SSW visible
26 May 11.7 03:55:18 10° W 04:10:09 54° SSW 04:18:10 10° SE visible
26 May 11.9 06:22:56 10° W 06:29:28 19° SW 06:30:53 18° SSW visible
27 May 11.8 04:15:18 10° W 04:29:20 47° SSW 04:36:34 13° SE visible
27 May 12.3 06:44:18 10° WSW 06:48:06 13° SW 06:49:08 13° SW visible
28 May 11.9 04:35:21 10° W 04:48:21 40° SSW 04:54:50 15° SSE visible
